COSMOS 2528 (43657 NORAD) Tracking and Keplerian Element Data

This shows tracking and keplerian element data for the satellite.

Feedback or suggestion? Click here.




ElementValue
Catalog43657
NameCOSMOS 2528
Epoch Orbit310
Epoch Day320.06349719
Epoch Year2018
RAAN329.3006
Inclination67.1501
Eccentricity0.0006865
Argument of Perigee261.8502
Mean Anonmoly98.1804
Mean Motion13.96669724
Decay Rate-7.5E-07
L11 43657U 18082A 18320.06349719 -.00000075 00000-0 00000+0 0 9999
L22 43657 67.1501 329.3006 0006865 261.8502 98.1804 13.96669724 3106

Live tracking and technical data element details for COSMOS 2528 (NORAD 43657). COSMOS 2528 can be tracked NOW for your location showing map with azimuth and elevation plus other details from your city location.

Track the satellite on the map from your city or location and see movement details for azimuth, elevation, latitude, longitude, range, height, and movement on the map or in text.







IsCatalogInMostPopularTable: catalog: 43657, numindb: 10
Update: records affected: 1



GetName: 43657 COSMOS 2528

Hit Count: updated at: Sat, 17 Nov 2018 03:12:58 GMT